Wind_Speed
61 59 56 56 68 73 75 72 72 73 72 69 66 61 56 54 52 51 50 49 52 55 56 56 60 60 61 61 64 59 53 54 53 53 50 52 54 58 62 63 66 68 69
61 61 56 52 62 73 73 71 71 70 70 69 66 62 54 53 52 52 47 48 50 52 53 55 56 59 60 59 54 51 50 49 52 52 54 57 59 62 66 69 71 73 75
60 61 56 49 54 67 72 70 68 68 68 67 65 62 56 51 51 51 49 48 47 49 49 51 53 52 53 50 50 49 48 50 52 54 58 61 64 68 75 78 79 79 82
61 61 57 50 49 61 70 68 65 64 65 65 64 61 57 52 51 51 49 49 50 50 50 49 49 49 49 49 49 49 51 53 55 60 63 65 68 71 75 83 87 88 91
62 61 58 54 51 54 66 67 62 60 62 63 63 60 57 51 51 51 49 49 50 50 49 50 49 49 49 48 49 51 54 57 61 65 68 71 74 77 77 78 86 91 96
67 63 61 56 49 52 58 64 61 59 59 61 62 59 55 50 51 50 49 50 49 50 50 49 49 50 49 50 52 56 59 63 67 70 74 76 80 82 83 82 85 88 95
70 66 61 55 51 51 54 63 60 58 57 59 61 58 54 51 51 49 50 49 50 50 49 50 50 50 51 54 57 61 64 68 72 75 78 81 83 87 89 89 89 89 95
75 68 64 56 52 51 53 58 58 56 57 58 58 56 53 52 51 50 50 50 50 50 50 51 51 53 56 58 61 66 69 73 76 79 84 88 89 93 94 95 96 97 102
75 71 64 56 52 53 53 54 56 55 56 58 58 55 53 52 52 51 51 51 51 53 53 55 56 58 60 63 67 70 74 77 81 85 89 92 95 98 100 102 105 106 105
72 70 65 57 53 55 54 52 54 55 56 59 58 55 53 52 52 52 53 53 54 55 57 59 61 62 65 68 71 75 78 82 86 90 95 97 100 103 104 107 111 116 119
72 69 63 57 55 57 53 51 55 55 57 59 57 54 54 54 53 53 55 55 57 59 62 63 65 66 68 71 75 79 83 88 92 96 100 101 102 105 109 114 119 122 115
73 68 62 54 52 54 52 50 53 57 58 59 57 55 55 54 54 54 55 57 58 61 63 65 67 69 71 75 79 84 88 93 98 101 101 103 106 111 116 121 118 113 106
70 67 60 54 47 50 52 50 54 58 58 58 56 54 54 54 54 54 55 58 60 62 64 67 69 72 76 79 83 88 93 98 103 102 104 108 113 118 121 114 109 100 108
64 61 56 50 46 49 54 53 55 58 59 59 56 53 53 54 55 55 56 58 61 63 66 68 72 75 80 84 89 93 99 103 104 105 109 114 118 117 112 100 103 109 116
62 57 54 49 48 52 55 54 55 58 58 58 55 53 53 54 55 55 56 59 61 64 68 71 75 80 85 89 94 99 103 104 107 111 116 118 113 107 98 103 110 118 124
56 54 50 49 50 52 54 53 53 55 55 56 54 53 53 53 54 54 56 60 63 67 72 76 80 85 89 93 98 99 103 107 111 116 114 111 98 99 106 112 121 128 130
55 52 51 49 49 52 54 49 52 53 55 54 52 50 50 51 53 54 58 61 66 70 74 78 82 86 91 94 98 102 107 111 113 109 108 96 100 107 112 120 127 133 135
43 46 50 49 50 52 51 48 52 52 51 50 49 49 49 52 53 56 60 65 70 74 78 81 85 90 93 98 101 107 111 108 108 99 96 100 107 115 121 124 130 133 122
42 42 41 42 45 45 46 46 46 46 46 47 47 48 51 53 56 61 65 70 74 77 80 85 88 93 97 101 108 106 104 103 93 96 103 109 115 122 125 129 129 117 108
21 22 26 30 34 38 41 40 40 40 42 43 46 50 53 55 60 65 69 72 76 80 85 88 93 96 103 105 102 102 92 90 94 102 109 116 123 125 129 124 111 105 100
16 20 25 29 33 34 35 36 37 39 41 44 46 49 53 58 62 67 71 75 80 84 89 93 97 103 99 99 97 88 89 93 100 108 117 122 125 128 121 109 104 98 90
17 20 24 27 30 30 32 34 36 38 41 43 47 52 57 61 66 71 75 80 84 88 92 99 100 97 98 89 86 89 95 102 109 117 123 125 127 118 107 102 96 88 81
19 22 24 26 28 30 31 33 36 39 42 47 51 56 61 66 70 75 80 83 88 93 96 92 94 93 87 85 89 95 102 110 117 125 128 127 115 106 100 92 85 80 75
20 23 24 26 27 29 32 35 38 43 47 52 56 60 66 71 75 79 84 89 93 90 89 90 86 81 84 88 94 101 109 115 122 126 125 112 102 97 89 82 78 74 68
25 26 26 26 29 32 36 40 44 48 52 56 61 66 71 75 80 85 88 86 85 87 84 78 79 83 87 93 99 106 114 119 121 118 107 99 94 85 77 73 68 65 61
28 29 30 32 35 38 41 45 49 53 58 62 67 72 76 81 82 82 82 82 79 74 73 77 81 87 92 97 104 114 120 118 113 103 96 90 82 76 73 68 62 56 53
Wind_Direction
256 257 257 253 243 244 247 246 244 245 247 250 253 257 263 267 268 271 273 276 272 271 268 270 271 272 272 271 273 277 276 278 281 284 285 287 287 289 289 290 290 290 290
255 256 256 254 246 241 245 246 244 243 244 246 249 253 258 262 266 270 278 276 274 273 271 271 272 271 270 273 274 273 277 279 282 285 287 287 288 288 289 289 289 289 288
252 253 253 252 250 238 241 245 245 244 243 244 246 249 253 257 262 268 273 274 274 274 272 270 271 271 273 273 273 276 278 280 283 285 286 287 289 290 291 291 291 291 291
250 252 250 248 249 241 235 240 242 243 241 242 244 246 249 253 258 265 270 269 271 270 269 270 271 270 272 273 276 278 280 282 283 284 286 287 287 290 292 294 294 295 294
246 248 249 247 249 244 233 235 239 241 240 240 241 244 247 251 256 261 263 267 266 267 269 269 268 270 272 275 277 279 282 284 284 285 287 288 290 291 291 291 293 294 294
245 246 250 249 251 252 238 231 235 238 239 239 241 242 245 248 254 259 261 264 265 267 270 271 270 272 275 277 280 282 284 285 286 288 289 289 292 293 293 292 292 293 295
244 244 244 247 249 250 240 229 231 235 235 236 240 242 244 248 253 257 259 263 264 267 268 270 272 276 279 280 282 284 286 287 289 291 291 293 294 294 294 294 293 291 292
239 240 241 242 245 249 241 228 229 233 234 234 237 241 243 247 251 254 258 261 264 267 269 272 274 277 280 281 284 286 288 291 292 293 295 295 294 294 293 293 294 294 296
235 237 239 239 244 245 241 229 225 229 231 232 234 238 241 245 250 253 255 260 263 265 269 272 275 277 280 284 286 288 291 292 294 295 296 296 296 294 295 296 296 296 296
228 233 235 237 238 241 240 231 224 226 228 229 232 235 238 244 248 252 255 259 263 265 269 273 275 278 282 285 287 289 292 294 296 297 297 297 296 296 297 298 299 299 300
223 226 231 237 238 238 236 233 225 224 226 229 231 235 238 243 247 252 255 260 264 267 270 273 276 280 284 286 288 291 293 295 297 297 298 297 298 299 300 300 300 303 302
220 224 228 232 237 235 236 234 225 224 224 228 230 234 238 243 248 253 257 262 267 270 273 275 278 282 286 288 290 292 294 295 297 297 298 299 300 301 301 303 304 303 302
215 221 224 228 232 233 236 236 226 225 224 228 231 235 240 244 250 255 260 265 270 273 276 277 282 284 287 289 291 293 294 296 297 298 300 301 302 303 304 304 304 302 301
211 217 224 227 229 229 233 235 228 223 224 227 231 236 242 247 253 258 263 268 272 276 279 281 284 286 288 291 292 294 295 297 298 300 301 302 303 304 304 303 303 303 301
210 216 222 224 223 225 229 233 228 222 224 226 232 237 244 250 256 262 267 272 277 280 282 285 287 288 290 292 293 294 296 298 300 302 303 304 304 305 303 303 302 301 302
211 218 225 224 221 225 229 233 226 222 224 227 233 239 246 254 260 266 272 276 280 283 285 286 288 290 291 293 294 297 298 301 301 303 303 304 304 305 305 304 304 304 308
211 215 220 219 221 224 229 230 222 222 223 228 235 243 252 259 266 271 277 281 283 285 287 288 290 292 293 296 297 299 301 302 303 303 304 304 305 304 304 304 306 310 310
204 208 212 216 220 225 230 226 219 221 223 231 239 248 256 263 269 275 280 282 284 285 288 292 293 295 296 298 300 301 302 303 304 303 304 305 305 305 305 307 310 311 309
203 208 214 219 223 227 224 218 219 222 226 236 244 252 260 267 273 277 281 283 286 290 293 295 296 297 298 301 301 302 303 304 305 306 306 306 307 305 307 311 312 309 310
211 209 207 211 216 214 212 216 218 224 236 245 252 258 265 272 276 279 283 287 291 293 294 295 297 299 300 302 302 303 304 305 306 306 306 306 305 308 312 312 310 311 311
194 195 196 200 204 208 213 216 224 236 245 252 258 265 271 276 280 283 287 290 292 294 295 297 300 301 301 302 304 303 304 306 306 307 305 306 309 313 313 312 312 312 311
188 191 198 204 208 211 216 227 238 247 254 261 267 273 277 281 284 286 289 291 293 296 298 299 301 301 302 303 303 305 306 307 307 306 307 310 314 314 313 313 312 311 311
192 194 200 206 213 222 233 243 251 258 264 269 273 277 280 282 285 288 291 294 295 297 299 300 301 303 303 305 307 308 308 308 308 309 311 313 315 313 313 312 312 312 312
208 204 209 220 231 240 247 253 259 264 268 272 275 279 283 285 289 292 293 295 297 298 299 301 302 303 305 307 309 310 308 308 308 310 312 314 313 313 313 313 313 313 312
214 219 227 236 244 250 255 259 263 268 273 277 281 284 288 289 290 292 294 296 298 299 301 302 304 306 307 308 308 307 306 307 309 312 314 313 313 313 312 312 312 312 312
226 233 240 246 252 258 263 268 273 277 280 283 286 287 289 290 292 294 297 299 300 301 303 304 305 305 306 307 308 307 308 311 313 314 313 313 313 314 314 314 313 312 309
Height
10625 10629 10634 10639 10637 10635 10637 10648 10658 10667 10675 10682 10687 10693 10697 10701 10700 10701 10701 10701 10699 10698 10696 10695 10696 10696 10695 10693 10691 10690 10686 10683 10679 10677 10677 10673 10670 10666 10661 10657 10653 10648 10643
10612 10613 10618 10623 10621 10623 10626 10633 10642 10652 10661 10668 10675 10682 10687 10690 10689 10688 10690 10689 10687 10686 10685 10684 10684 10683 10682 10680 10679 10677 10675 10671 10668 10665 10662 10660 10658 10652 10646 10642 10637 10632 10625
10597 10597 10602 10608 10606 10610 10614 10620 10629 10638 10646 10654 10662 10669 10676 10678 10678 10678 10680 10679 10677 10675 10674 10673 10672 10670 10669 10667 10666 10664 10663 10661 10657 10653 10651 10647 10641 10638 10627 10621 10617 10613 10605
10582 10582 10586 10593 10591 10593 10602 10608 10616 10625 10633 10641 10648 10656 10663 10666 10667 10668 10669 10668 10667 10666 10665 10663 10661 10659 10657 10656 10654 10652 10651 10649 10646 10642 10637 10633 10630 10626 10622 10602 10590 10588 10578
10564 10566 10570 10578 10577 10580 10587 10596 10604 10612 10619 10628 10636 10643 10651 10655 10656 10657 10657 10657 10656 10655 10653 10651 10649 10648 10647 10645 10643 10641 10639 10636 10632 10628 10623 10619 10614 10611 10609 10606 10584 10571 10558
10547 10552 10555 10565 10569 10571 10577 10585 10592 10599 10607 10616 10623 10632 10639 10644 10646 10646 10647 10646 10645 10643 10642 10640 10639 10637 10636 10634 10631 10629 10626 10622 10618 10613 10607 10601 10596 10589 10586 10585 10578 10568 10548
10529 10537 10544 10552 10555 10559 10564 10572 10581 10588 10596 10604 10612 10622 10628 10632 10635 10636 10635 10635 10633 10632 10630 10629 10628 10626 10624 10621 10619 10616 10612 10607 10602 10596 10589 10583 10576 10568 10560 10556 10554 10551 10536
10508 10520 10530 10537 10542 10547 10551 10561 10570 10578 10586 10593 10602 10610 10616 10621 10623 10624 10624 10623 10621 10620 10619 10618 10616 10614 10611 10608 10605 10601 10595 10590 10583 10576 10569 10561 10554 10544 10536 10529 10524 10522 10510
10497 10506 10517 10526 10532 10537 10541 10550 10559 10567 10576 10584 10591 10599 10605 10609 10611 10612 10612 10611 10610 10609 10608 10606 10604 10602 10598 10595 10590 10585 10578 10571 10565 10557 10548 10538 10529 10518 10509 10501 10491 10485 10487
10482 10496 10506 10514 10520 10525 10534 10542 10550 10558 10566 10573 10580 10588 10594 10598 10599 10600 10600 10599 10599 10598 10596 10594 10592 10588 10585 10580 10574 10568 10560 10553 10545 10536 10525 10515 10505 10493 10482 10472 10459 10446 10437
10466 10480 10495 10505 10510 10514 10524 10533 10541 10549 10556 10563 10571 10578 10583 10586 10587 10588 10588 10588 10587 10585 10583 10582 10578 10574 10570 10564 10557 10550 10542 10533 10524 10514 10503 10492 10481 10467 10455 10441 10427 10413 10397
10453 10470 10482 10492 10500 10508 10517 10525 10533 10539 10546 10553 10561 10567 10571 10574 10576 10577 10577 10577 10575 10573 10572 10568 10564 10560 10554 10548 10540 10532 10524 10513 10503 10491 10480 10467 10454 10439 10426 10412 10396 10380 10363
10443 10459 10473 10483 10491 10502 10510 10517 10523 10530 10538 10545 10552 10557 10562 10564 10566 10566 10566 10565 10563 10561 10559 10554 10550 10544 10538 10531 10524 10514 10504 10493 10481 10468 10456 10442 10428 10412 10397 10381 10368 10352 10335
10437 10454 10468 10477 10485 10494 10502 10508 10514 10522 10529 10537 10543 10548 10552 10554 10555 10555 10555 10554 10551 10549 10545 10540 10534 10528 10521 10513 10505 10495 10483 10470 10457 10443 10430 10416 10401 10385 10371 10355 10341 10325 10307
10432 10450 10461 10469 10478 10485 10493 10500 10507 10515 10522 10529 10535 10540 10543 10544 10545 10545 10544 10542 10539 10535 10530 10525 10519 10512 10504 10495 10485 10474 10461 10447 10432 10417 10402 10387 10373 10358 10343 10330 10314 10294 10275
10434 10447 10456 10464 10471 10479 10487 10495 10502 10510 10517 10523 10527 10531 10533 10535 10536 10535 10533 10530 10526 10521 10516 10509 10503 10495 10486 10475 10464 10453 10438 10424 10409 10394 10376 10363 10348 10335 10319 10300 10281 10255 10240
10431 10441 10450 10459 10466 10473 10481 10489 10497 10504 10509 10515 10519 10523 10526 10526 10525 10523 10520 10517 10512 10507 10501 10493 10485 10477 10467 10455 10443 10430 10415 10399 10383 10367 10354 10340 10326 10309 10295 10275 10251 10225 10202
10428 10437 10445 10452 10460 10468 10475 10482 10489 10496 10503 10510 10514 10516 10517 10516 10514 10512 10508 10504 10498 10492 10485 10477 10467 10456 10446 10433 10421 10406 10390 10374 10359 10343 10330 10318 10302 10281 10263 10248 10226 10199 10177
10426 10434 10442 10449 10456 10462 10470 10478 10486 10494 10500 10505 10507 10508 10507 10506 10503 10499 10495 10490 10484 10476 10467 10458 10448 10436 10424 10411 10397 10382 10367 10352 10336 10319 10303 10290 10274 10252 10238 10221 10197 10169 10151
10427 10432 10438 10446 10454 10461 10469 10477 10485 10491 10496 10498 10499 10499 10498 10495 10491 10487 10482 10475 10467 10458 10448 10439 10428 10417 10402 10387 10373 10359 10344 10332 10318 10300 10281 10262 10242 10227 10210 10188 10165 10145 10127
10428 10433 10440 10447 10454 10462 10469 10476 10482 10487 10489 10491 10491 10489 10486 10483 10479 10473 10466 10458 10449 10440 10428 10419 10407 10394 10380 10366 10352 10337 10324 10311 10296 10277 10255 10235 10218 10200 10176 10155 10137 10121 10105
10432 10437 10444 10451 10457 10463 10469 10475 10479 10481 10482 10482 10480 10477 10474 10470 10464 10457 10449 10441 10431 10422 10411 10396 10381 10369 10357 10345 10333 10318 10302 10287 10269 10247 10226 10209 10190 10169 10150 10131 10113 10098 10084
10437 10441 10447 10453 10458 10463 10467 10471 10473 10473 10472 10471 10468 10465 10460 10455 10448 10440 10432 10423 10413 10402 10390 10377 10363 10348 10334 10324 10311 10297 10279 10260 10237 10216 10197 10181 10162 10142 10125 10109 10092 10077 10065
10441 10445 10449 10453 10457 10461 10463 10464 10464 10463 10461 10458 10455 10451 10445 10439 10432 10423 10414 10405 10394 10383 10370 10358 10344 10331 10319 10307 10293 10275 10255 10235 10214 10195 10176 10157 10139 10123 10104 10087 10072 10058 10047
10441 10445 10447 10450 10453 10454 10455 10454 10453 10451 10449 10446 10441 10435 10429 10422 10414 10404 10394 10384 10374 10363 10350 10337 10325 10315 10302 10288 10273 10255 10234 10216 10197 10175 10153 10135 10118 10102 10087 10074 10060 10045 10033
10438 10441 10443 10445 10445 10446 10445 10444 10442 10439 10435 10431 10425 10419 10412 10404 10394 10384 10375 10365 10352 10341 10332 10321 10310 10296 10283 10271 10251 10226 10204 10189 10168 10148 10131 10115 10098 10082 10067 10054 10044 10034 10023